Weather History for Beverly, MA

Change the Weather History Date:

Monday, July 8, 2013

  Actual Average Record
Temperature  
Mean Temperature 73 °F -  
Max Temperature 84 °F 77 °F 98 °F (1981)
Min Temperature 64 °F 57 °F 51 °F (2000)
Cooling Degree Days 8    
Growing Degree Days 23 (Base 50)    
Moisture  
Dew Point 66 °F    
Average Humidity 86    
Maximum Humidity 94    
Minimum Humidity 71    
Precipitation  
Precipitation 1.03 in - - ()
Sea Level Pressure  
Sea Level Pressure 29.98 in    
Wind  
Wind Speed 5 mph (NNE)    
Max Wind Speed 13 mph    
Max Gust Speed -    
Visibility 8 miles    
Events Rain    
Averages and records for this station are not official NWS values.
T = Trace of Precipitation, MM = Missing Value Source: NWS Daily Summary

Daily Weather History Graph

Daily Weather History Graph

Search for Another Location

Airport:

Trip Planner

Search our weather history database for the weather conditions in past years. The results will help you decide how hot, cold, wet, or windy it might be!

Date:

Astronomy

Jul. 08, 2013 Rise Set
Actual Time 5:14 AM EDT 8:23 PM EDT
Civil Twilight 4:39 AM EDT 8:57 PM EDT
Nautical Twilight 3:55 AM EDT 9:41 PM EDT
Astronomical Twilight 3:02 AM EDT 10:33 PM EDT
Moon 5:42 AM EDT (7/8) 8:20 PM EDT (7/8)
Length of Visible Light 16h 17m
Length of Day
15h 08m
New Moon, 0% of the Moon is Illuminated
Jul 8
New Moon
Jul 15
First Quarter
Jul 22
Full
Jul 29
Last Quarter
Aug 6
New

Hourly Weather History & Observations

Time (EDT) Temp. Heat Index Dew Point Humidity Pressure Visibility Wind Dir Wind Speed Gust Speed Precip Events Conditions
12:53 AM 75.0 °F - 70.0 °F 84% 29.89 in 10.0 mi SSW 3.5 mph - N/A   Clear
1:53 AM 73.9 °F - 70.0 °F 87% 29.90 in 10.0 mi WSW 5.8 mph - N/A   Clear
2:53 AM 75.9 °F - 72.0 °F 87% 29.90 in 10.0 mi Calm Calm - N/A   Clear
3:53 AM 75.0 °F - 72.0 °F 90% 29.89 in 10.0 mi Calm Calm - N/A   Mostly Cloudy
4:53 AM 73.0 °F - 71.1 °F 93% 29.89 in 10.0 mi Calm Calm - N/A   Clear
5:53 AM 75.0 °F - 72.0 °F 90% 29.90 in 10.0 mi Calm Calm - N/A   Clear
6:53 AM 77.0 °F - 73.0 °F 88% 29.91 in 10.0 mi West 4.6 mph - N/A   Clear
7:53 AM 80.1 °F 84.2 °F 73.0 °F 79% 29.91 in 10.0 mi WNW 3.5 mph - N/A   Clear
8:53 AM 82.0 °F 86.7 °F 72.0 °F 71% 29.91 in 10.0 mi Variable 5.8 mph - N/A   Clear
9:23 AM 82.4 °F 88.2 °F 73.4 °F 74% 29.93 in 10.0 mi North 6.9 mph - N/A   Mostly Cloudy
9:53 AM 75.9 °F - 70.0 °F 82% 29.94 in 10.0 mi NE 9.2 mph - N/A   Overcast
10:26 AM 78.8 °F - 69.8 °F 74% 29.96 in 10.0 mi NE 8.1 mph - N/A   Scattered Clouds
10:53 AM 77.0 °F - 69.1 °F 76% 29.95 in 10.0 mi NNE 12.7 mph - N/A   Clear
11:33 AM 75.2 °F - 69.8 °F 83% 29.97 in 8.0 mi NNE 9.2 mph - N/A   Mostly Cloudy
11:53 AM 73.9 °F - 68.0 °F 82% 29.96 in 9.0 mi NNE 9.2 mph - N/A   Overcast
12:53 PM 75.9 °F - 68.0 °F 76% 29.97 in 10.0 mi ENE 10.4 mph - N/A   Mostly Cloudy
1:51 PM 73.4 °F - 66.2 °F 78% 29.99 in 10.0 mi NE 10.4 mph - N/A   Mostly Cloudy
1:53 PM 73.0 °F - 66.9 °F 81% 29.97 in 10.0 mi NE 8.1 mph - N/A   Mostly Cloudy
2:53 PM 75.0 °F - 66.9 °F 76% 29.96 in 10.0 mi NE 9.2 mph - N/A   Scattered Clouds
3:53 PM 75.0 °F - 66.9 °F 76% 29.97 in 10.0 mi NE 9.2 mph - N/A   Partly Cloudy
4:53 PM 73.0 °F - 64.9 °F 76% 29.96 in 10.0 mi ENE 8.1 mph - N/A   Clear
5:53 PM 71.1 °F - 64.0 °F 78% 29.98 in 10.0 mi NNE 5.8 mph - N/A   Scattered Clouds
6:11 PM 69.8 °F - 62.6 °F 78% 29.99 in 10.0 mi Variable 4.6 mph - N/A   Mostly Cloudy
6:53 PM 68.0 °F - 62.1 °F 81% 29.99 in 10.0 mi North 5.8 mph - N/A   Overcast
7:53 PM 66.9 °F - 62.1 °F 84% 30.01 in 10.0 mi North 8.1 mph - N/A   Overcast
8:02 PM 66.2 °F - 62.6 °F 88% 30.02 in 6.0 mi NE 5.8 mph - 0.03 in Rain Light Rain
8:07 PM 66.2 °F - 62.6 °F 88% 30.02 in 1.8 mi East 5.8 mph - 0.12 in Rain Heavy Rain
8:25 PM 64.4 °F - 62.6 °F 94% 30.02 in 2.5 mi ESE 4.6 mph - 0.29 in Rain Rain
8:34 PM 66.2 °F - 64.4 °F 94% 30.02 in 5.0 mi NE 5.8 mph - 0.31 in Rain Light Rain
8:41 PM 66.2 °F - 64.4 °F 94% 30.02 in 6.0 mi Variable 4.6 mph - 0.31 in Rain Light Rain
8:50 PM 64.4 °F - 62.6 °F 94% 30.04 in 8.0 mi North 4.6 mph - 0.31 in Rain Light Rain
8:53 PM 64.9 °F - 63.0 °F 93% 30.03 in 8.0 mi NNW 6.9 mph - 0.32 in Rain Light Rain
9:01 PM 64.4 °F - 62.6 °F 94% 30.05 in 1.5 mi North 5.8 mph - 0.19 in Rain Heavy Rain
9:08 PM 64.4 °F - 62.6 °F 94% 30.04 in 0.8 mi NE 8.1 mph - 0.44 in Rain Heavy Rain
9:14 PM 64.4 °F - 62.6 °F 94% 30.04 in 1.0 mi NNE 8.1 mph - 0.58 in Rain Heavy Rain
9:23 PM 64.4 °F - 62.6 °F 94% 30.03 in 1.8 mi NE 9.2 mph - 0.70 in Rain Heavy Rain
9:28 PM 64.4 °F - 62.6 °F 94% 30.04 in 3.0 mi NE 5.8 mph - 0.70 in Rain Light Rain
9:40 PM 64.4 °F - 62.6 °F 94% 30.05 in 10.0 mi Calm Calm - 0.71 in   Overcast
9:51 PM 64.4 °F - 62.6 °F 94% 30.05 in 10.0 mi Calm Calm - 0.71 in   Overcast
9:53 PM 64.0 °F - 62.1 °F 93% 30.04 in 10.0 mi NNW 3.5 mph - 0.71 in   Overcast
10:53 PM 64.9 °F - 62.1 °F 90% 30.05 in 10.0 mi North 3.5 mph - N/A   Overcast
11:53 PM 64.9 °F - 62.1 °F 90% 30.05 in 10.0 mi NNE 3.5 mph - N/A   Overcast